Weather History for Duluth Sky Harbor, MN

Change the Weather History Date:

Tuesday, February 26, 2013

  Actual Average Record
Temperature  
Mean Temperature 22 °F -  
Max Temperature 33 °F 31 °F 58 °F (1976)
Min Temperature 10 °F 12 °F -24 °F (1963)
Degree Days  
Heating Degree Days 44    
Moisture  
Dew Point 21 °F    
Average Humidity 87    
Maximum Humidity 93    
Minimum Humidity 79    
Precipitation  
Precipitation 0.00 in - - ()
Sea Level Pressure  
Sea Level Pressure 30.04 in    
Wind  
Wind Speed 6 mph (NE)    
Max Wind Speed 16 mph    
Max Gust Speed -    
Visibility 9 miles    
Events Fog    
Averages and records for this station are not official NWS values.
T = Trace of Precipitation, MM = Missing Value Source: NWS Daily Summary

Daily Weather History Graph

Daily Weather History Graph

Search for Another Location

Airport:

Trip Planner

Search our weather history database for the weather conditions in past years. The results will help you decide how hot, cold, wet, or windy it might be!

Date:

Astronomy

Feb. 26, 2013 Rise Set
Actual Time 6:52 AM CST 5:49 PM CST
Civil Twilight 6:22 AM CST 6:20 PM CST
Nautical Twilight 5:47 AM CST 6:55 PM CST
Astronomical Twilight 5:12 AM CST 7:30 PM CST
Moon 7:15 PM CST (2/26) 6:49 AM CST (2/26)
Length of Visible Light 11h 58m
Length of Day
10h 57m
Full, 99% of the Moon is Illuminated
Feb 26
Full
Mar 4
Last Quarter
Mar 11
New
Mar 19
First Quarter
Mar 27
Full

Hourly Weather History & Observations

Time (CST) Temp. Windchill Dew Point Humidity Pressure Visibility Wind Dir Wind Speed Gust Speed Precip Events Conditions
12:13 AM 19.4 °F 10.4 °F 15.8 °F 86% 30.07 in 10.0 mi South 6.9 mph - N/A   Clear
12:34 AM 21.2 °F 16.4 °F 17.6 °F 86% 30.08 in 10.0 mi SW 3.5 mph - N/A   Clear
12:54 AM 19.4 °F 14.3 °F 15.8 °F 86% 30.09 in 10.0 mi West 3.5 mph - N/A   Clear
1:13 AM 21.2 °F 14.9 °F 17.6 °F 86% 30.09 in 10.0 mi SSW 4.6 mph - N/A   Clear
1:33 AM 21.2 °F 14.9 °F 17.6 °F 86% 30.10 in 10.0 mi SW 4.6 mph - N/A   Clear
1:54 AM 19.4 °F - 15.8 °F 86% 30.10 in 10.0 mi Calm Calm - N/A   Clear
2:13 AM 17.6 °F 10.7 °F 15.8 °F 93% 30.10 in 7.0 mi SSW 4.6 mph - N/A   Clear
2:33 AM 19.4 °F 14.3 °F 15.8 °F 86% 30.10 in 10.0 mi SSW 3.5 mph - N/A   Clear
2:53 AM 19.4 °F 14.3 °F 17.6 °F 93% 30.08 in 10.0 mi SW 3.5 mph - N/A   Clear
3:13 AM 17.6 °F 12.3 °F 15.8 °F 93% 30.09 in 4.0 mi SSW 3.5 mph - N/A   Clear
3:34 AM 14.0 °F 8.2 °F 10.4 °F 86% 30.08 in 1.8 mi SSE 3.5 mph - N/A   Mostly Cloudy
3:53 AM 17.6 °F - 15.8 °F 93% 30.07 in 7.0 mi Calm Calm - N/A   Scattered Clouds
4:13 AM 17.6 °F - 15.8 °F 93% 30.06 in 5.0 mi Calm Calm - N/A   Clear
4:34 AM 10.4 °F - 8.6 °F 92% 30.06 in 0.2 mi Calm Calm - N/A Fog Light Freezing Fog
4:53 AM 12.2 °F - 10.4 °F 92% 30.05 in 3.0 mi Calm Calm - N/A   Scattered Clouds
5:13 AM 12.2 °F - 8.6 °F 85% 30.05 in 1.0 mi Calm Calm - N/A   Mist
5:34 AM 12.2 °F 6.1 °F 10.4 °F 92% 30.06 in 5.0 mi SSW 3.5 mph - N/A   Clear
5:53 AM 12.2 °F 2.9 °F 10.4 °F 92% 30.08 in 5.0 mi SW 5.8 mph - N/A   Clear
6:13 AM 14.0 °F - 10.4 °F 86% 30.07 in 7.0 mi Calm Calm - N/A   Clear
6:34 AM 12.2 °F - 10.4 °F 92% 30.07 in 7.0 mi Calm Calm - N/A   Clear
6:53 AM 12.2 °F - 10.4 °F 92% 30.07 in 7.0 mi Calm Calm - N/A   Clear
7:13 AM 12.2 °F - 10.4 °F 92% 30.08 in 7.0 mi Calm Calm - N/A   Clear
7:34 AM 12.2 °F 6.1 °F 10.4 °F 92% 30.08 in 5.0 mi South 3.5 mph - N/A   Clear
7:53 AM 14.0 °F - 10.4 °F 86% 30.08 in 7.0 mi Calm Calm - N/A   Clear
8:13 AM 15.8 °F - 12.2 °F 86% 30.08 in 7.0 mi Calm Calm - N/A   Clear
8:34 AM 15.8 °F - 12.2 °F 86% 30.08 in 7.0 mi Calm Calm - N/A   Clear
8:53 AM 15.8 °F - 10.4 °F 79% 30.07 in 7.0 mi Calm Calm - N/A   Clear
9:13 AM 15.8 °F - 12.2 °F 86% 30.07 in 7.0 mi Calm Calm - N/A   Clear
9:34 AM 17.6 °F - 14.0 °F 86% 30.07 in 10.0 mi Calm Calm - N/A   Scattered Clouds
9:53 AM 19.4 °F - 15.8 °F 86% 30.07 in 10.0 mi Calm Calm - N/A   Mostly Cloudy
10:13 AM 21.2 °F - 17.6 °F 86% 30.07 in 10.0 mi Calm Calm - N/A   Overcast
10:34 AM 23.0 °F - 19.4 °F 86% 30.07 in 10.0 mi Calm Calm - N/A   Overcast
10:53 AM 24.8 °F 20.5 °F 21.2 °F 86% 30.07 in 10.0 mi NNE 3.5 mph - N/A   Overcast
11:14 AM 26.6 °F - 23.0 °F 86% 30.07 in 10.0 mi Calm Calm - N/A   Overcast
11:33 AM 28.4 °F - 24.8 °F 86% 30.07 in 10.0 mi Calm Calm - N/A   Overcast
11:54 AM 28.4 °F - 24.8 °F 86% 30.06 in 10.0 mi Calm Calm - N/A   Overcast
12:13 PM 30.2 °F 26.7 °F 26.6 °F 86% 30.06 in 7.0 mi North 3.5 mph - N/A   Scattered Clouds
12:33 PM 30.2 °F 24.3 °F 26.6 °F 86% 30.05 in 10.0 mi North 5.8 mph - N/A   Scattered Clouds
12:54 PM 32.0 °F 24.2 °F 28.4 °F 87% 30.05 in 10.0 mi NE 9.2 mph - N/A   Overcast
1:13 PM 32.0 °F 21.2 °F 28.4 °F 87% 30.04 in 10.0 mi NE 16.1 mph - N/A   Scattered Clouds
1:34 PM 32.0 °F 21.2 °F 28.4 °F 87% 30.03 in 10.0 mi NE 16.1 mph - N/A   Clear
1:54 PM 33.8 °F 23.9 °F 28.4 °F 81% 30.02 in 10.0 mi NE 15.0 mph - N/A   Clear
2:13 PM 33.8 °F 23.9 °F 28.4 °F 81% 30.02 in 10.0 mi NE 15.0 mph - N/A   Scattered Clouds
2:34 PM 33.8 °F 23.5 °F 28.4 °F 81% 30.02 in 10.0 mi NE 16.1 mph - N/A   Clear
2:54 PM 33.8 °F 23.5 °F 28.4 °F 81% 30.02 in 10.0 mi NE 16.1 mph - N/A   Clear
3:13 PM 33.8 °F 23.9 °F 28.4 °F 81% 30.01 in 10.0 mi NE 15.0 mph - N/A   Clear
3:34 PM 33.8 °F 23.5 °F 28.4 °F 81% 30.01 in 10.0 mi NE 16.1 mph - N/A   Clear
3:54 PM 33.8 °F 23.9 °F 28.4 °F 81% 30.01 in 10.0 mi NE 15.0 mph - N/A   Clear
4:13 PM 33.8 °F 24.3 °F 28.4 °F 81% 30.01 in 10.0 mi NE 13.8 mph - N/A   Clear
4:34 PM 32.0 °F 22.1 °F 28.4 °F 87% 30.01 in 10.0 mi NE 13.8 mph - N/A   Clear
4:53 PM 32.0 °F 22.1 °F 28.4 °F 87% 30.01 in 10.0 mi NE 13.8 mph - N/A   Clear
5:13 PM 32.0 °F 21.2 °F 28.4 °F 87% 30.00 in 10.0 mi ENE 16.1 mph - N/A   Clear
5:34 PM 32.0 °F 21.2 °F 28.4 °F 87% 30.00 in 10.0 mi NE 16.1 mph - N/A   Clear
5:54 PM 30.2 °F 19.3 °F 26.6 °F 86% 30.01 in 10.0 mi ENE 15.0 mph - N/A   Clear
6:13 PM 30.2 °F 20.8 °F 26.6 °F 86% 30.01 in 10.0 mi NE 11.5 mph - N/A   Clear
6:34 PM 30.2 °F 20.8 °F 28.4 °F 93% 30.00 in 10.0 mi NE 11.5 mph - N/A   Clear
6:53 PM 30.2 °F 19.8 °F 26.6 °F 86% 30.01 in 10.0 mi NE 13.8 mph - N/A   Clear
7:13 PM 30.2 °F 20.8 °F 26.6 °F 86% 30.01 in 10.0 mi NE 11.5 mph - N/A   Clear
7:33 PM 30.2 °F 20.8 °F 26.6 °F 86% 30.01 in 10.0 mi NE 11.5 mph - N/A   Clear
7:53 PM 30.2 °F 21.3 °F 26.6 °F 86% 30.01 in 10.0 mi NE 10.4 mph - N/A   Clear
8:14 PM 28.4 °F 19.1 °F 24.8 °F 86% 30.00 in 10.0 mi NNE 10.4 mph - N/A   Clear
8:33 PM 28.4 °F 18.5 °F 24.8 °F 86% 30.00 in 10.0 mi NNE 11.5 mph - N/A   Clear
8:53 PM 28.4 °F 18.0 °F 24.8 °F 86% 29.99 in 10.0 mi NNE 12.7 mph - N/A   Clear
9:13 PM 28.4 °F 20.4 °F 24.8 °F 86% 30.00 in 10.0 mi NE 8.1 mph - N/A   Clear
9:33 PM 28.4 °F 19.7 °F 24.8 °F 86% 30.00 in 10.0 mi NE 9.2 mph - N/A   Clear
9:54 PM 28.4 °F 18.5 °F 24.8 °F 86% 30.00 in 10.0 mi NE 11.5 mph - N/A   Clear
10:13 PM 28.4 °F 17.5 °F 24.8 °F 86% 29.99 in 10.0 mi NNE 13.8 mph - N/A   Clear
10:54 PM 28.4 °F 18.0 °F 24.8 °F 86% 29.99 in 10.0 mi NE 12.7 mph - N/A   Clear
11:13 PM 28.4 °F 17.5 °F 26.6 °F 93% 29.99 in 10.0 mi NNE 13.8 mph - N/A   Mostly Cloudy
11:33 PM 30.2 °F 19.8 °F 26.6 °F 86% 29.98 in 10.0 mi NNE 13.8 mph - N/A   Overcast
11:53 PM 30.2 °F 19.3 °F 26.6 °F 86% 29.98 in 10.0 mi NNE 15.0 mph - N/A   Overcast